Home   Weather   France   La Rochelle   Past weeks
Flag for France

Past Weather in La Rochelle, Nouvelle-Aquitaine, France — Yesterday and Last 2 Weeks

Currently: 55 °F. Overcast. (Weather station: La Rochelle Airport, France). See more current weather

Past Weather in La Rochelle — Graph

°F

La Rochelle Temperature Yesterday

Maximum temperature yesterday: 63 °F (at 2:00 pm)
Minimum temperature yesterday: 52 °F (at 11:30 pm)
Average temperature yesterday: 58 °F

High & Low Weather Summary for the Past Weeks

 TemperatureHumidityPressure
High77 °F (May 8, 5:30 pm)100% (May 1, 7:30 am)30.24 "Hg (May 1, 7:30 am)
Low39 °F (May 2, 6:30 am)31% (Apr 27, 3:30 pm)29.47 "Hg (May 9, 5:30 pm)
Average56 °F71%29.88 "Hg
* Reported Apr 26 1:00 am — May 11 1:30 am, La Rochelle. Weather by CustomWeather, © 2021

Note: Actual official high and low records may vary slightly from our data, if they occured in-between our weather recording intervals... More about our weather records

La Rochelle Weather History for the Previous 24 Hours

Scroll right to see more
 ConditionsComfort  
Time TempWeatherWind HumidityBarometerVisibility
1:30 am
Tue, May 11
55 °FOvercast.8 mph82%29.80 "HgN/A
1:00 am55 °FClear.6 mph82%29.80 "Hg10 mi
12:30 am54 °FClear.5 mph82%29.80 "Hg10 mi
12:00 am54 °FPassing clouds.6 mph82%29.80 "HgN/A
11:30 pm
Mon, May 10
52 °FClear.7 mph82%29.80 "Hg10 mi
11:00 pm54 °FClear.5 mph77%29.80 "Hg10 mi
10:30 pm54 °FClear.6 mph77%29.77 "Hg10 mi
10:00 pm54 °FClear.3 mph77%29.77 "Hg10 mi
9:30 pm55 °FPassing clouds.5 mph72%29.77 "HgN/A
9:00 pm57 °FPassing clouds.6 mph67%29.77 "HgN/A
8:00 pm59 °FPassing clouds.7 mph63%29.77 "HgN/A
7:30 pm59 °FPassing clouds.9 mph68%29.77 "HgN/A
7:00 pm61 °FClear.9 mph63%29.77 "Hg6 mi
6:30 pm61 °FClear.12 mph63%29.77 "Hg6 mi
6:00 pm61 °FClear.12 mph63%29.77 "Hg6 mi
5:30 pm61 °FClear.14 mph63%29.77 "Hg6 mi
5:00 pm63 °FPassing clouds.13 mph64%29.77 "Hg6 mi
4:30 pm63 °FClear.14 mph59%29.77 "Hg6 mi
4:00 pm63 °FPassing clouds.14 mph59%29.77 "HgN/A
3:30 pm63 °FPassing clouds.15 mph59%29.80 "HgN/A
3:00 pm61 °FPassing clouds.16 mph68%29.80 "HgN/A
2:30 pm63 °FPassing clouds.17 mph59%29.80 "HgN/A
2:00 pm63 °FPassing clouds.16 mph64%29.80 "HgN/A
1:30 pm61 °FPassing clouds.17 mph63%29.80 "HgN/A
1:00 pm61 °FPartly sunny.16 mph68%29.80 "HgN/A
12:30 pm61 °FScattered clouds.16 mph68%29.77 "HgN/A
12:00 pm61 °FPassing clouds.16 mph68%29.77 "HgN/A
11:30 am59 °FPassing clouds.17 mph72%29.77 "HgN/A
11:00 am61 °FScattered clouds.17 mph68%29.77 "HgN/A
10:30 am59 °FPassing clouds.18 mph72%29.74 "HgN/A
10:00 am59 °FPartly sunny.16 mph72%29.74 "HgN/A
9:30 am59 °FPartly sunny.16 mph72%29.74 "HgN/A
9:00 am57 °FPartly sunny.14 mph77%29.74 "HgN/A
8:30 am57 °FScattered clouds.16 mph77%29.71 "HgN/A
8:00 am57 °FPartly sunny.16 mph72%29.71 "HgN/A
7:30 am57 °FPartly sunny.17 mph72%29.71 "HgN/A
7:00 am55 °FPartly sunny.20 mph82%29.68 "HgN/A
6:30 am55 °FPassing clouds.14 mph82%29.68 "HgN/A
5:30 am55 °FPassing clouds.15 mph82%29.68 "HgN/A
5:00 am57 °FPassing clouds.15 mph77%29.68 "HgN/A
4:30 am55 °FPartly cloudy.17 mph88%29.68 "HgN/A
4:00 am57 °FPassing clouds.18 mph82%29.65 "HgN/A
3:30 am57 °FMostly cloudy.17 mph82%29.65 "HgN/A
3:00 am57 °FMostly cloudy.16 mph88%29.65 "HgN/A
2:30 am55 °FLight rain. Partly cloudy.15 mph94%29.65 "HgN/A
Weather by CustomWeather, © 2021

See weather overview